Content
SEND FEEDBACK

Daily
Averages
Monthly
Summary
United States of America

AMY, COLORADO


Home > North America > United States > Colorado
Elevation: 5240 feet     Latitude: 38 53N     Longitude: 103 39W

WEATHER
 
SELECT A DAY
Number of Records: 194,300;   Date Range: 1/1/95 - 9/30/14
 
SHARE

PRINT THIS DATA

[ ← Previous Day ]
WEATHER ALMANAC - JANUARY 19, 2013
[ Next Day → ]
[ °C ]   °F
Weather ElementAverageHighLow
Temperature32.6 °F51.1 °F (12:55 pm)19 °F (4:55 am)
Dewpoint11.4 °F15.1 °F (8:55 am)7 °F (1:55 pm)
Humidity48 %81 % (7:55 pm)17 % (1:55 pm)
Barometer30.22 in30.32 in (6:55 pm)30.06 in (1:55 am)
Wind Speed4.8 mph11.5 mph (6:55 am)
Weather ElementAverage
Visibility10 mi
Wind DirectionSSE (153.5 °)

Weather ElementTotal
Precipitation---
Heating Degree Days30 (Base 65)
Averaged from 23 records on January 19, 2013
WEATHER CONDITIONS BREAKOUT
WIND DIRECTION BREAKOUT
WEATHER BY HOUR - JANUARY 19, 2013
[ °C ]   °F
Local TimeTemperatureDewpointHumidityBarometerVisibilityWind DirectionWind SpeedGust SpeedPrecipitationEventsConditions
1:55 AM25.0 °F10.0 °F53 %30.06 in10.0 miWNW (290°)10.4 mphClear
2:55 AM23.0 °F12.0 °F63 %30.09 in10.0 miNW (320°)3.5 mphClear
3:55 AM27.0 °F10.9 °F51 %30.07 in10.0 miWest (280°)8.1 mphClear
4:55 AM19.0 °F10.9 °F71 %30.18 in10.0 miCalmClear
5:55 AM24.1 °F10.9 °F57 %30.25 in10.0 miWNW (290°)8.1 mphClear
6:55 AM21.9 °F10.9 °F63 %30.29 in10.0 miNNW (330°)11.5 mphClear
7:55 AM30.9 °F12.9 °F47 %30.27 in10.0 miNW (310°)11.5 mphClear
8:55 AM39.9 °F15.1 °F36 %30.27 in10.0 miNNW (330°)4.6 mphClear
9:55 AM46.0 °F8.1 °F21 %30.28 in10.0 miNorth (350°)10.4 mphClear
10:55 AM46.9 °F9.0 °F21 %30.27 in10.0 miNorth (350°)9.2 mphClear
11:55 AM48.9 °F9.0 °F20 %30.25 in10.0 miNNE (30°)4.6 mphClear
12:55 PM51.1 °F9.0 °F18 %30.20 in10.0 miCalmClear
1:55 PM51.1 °F7.0 °F17 %30.20 in10.0 miCalmClear
2:55 PM50.0 °F8.1 °F18 %30.19 in10.0 miSSW (200°)3.5 mphClear
3:55 PM48.9 °F10.0 °F21 %30.18 in10.0 miSSE (150°)8.1 mphClear
4:55 PM37.9 °F12.9 °F36 %30.26 in10.0 miSSE (150°)6.9 mphClear
5:55 PM30.9 °F14.0 °F50 %30.27 in10.0 miSSE (150°)5.8 mphClear
6:55 PM23.0 °F15.1 °F72 %30.32 in10.0 miCalmClear
7:55 PM19.9 °F15.1 °F81 %30.30 in10.0 miCalmClear
8:55 PM19.9 °F15.1 °F81 %30.27 in10.0 miCalmClear
9:55 PM19.0 °F14.0 °F81 %30.24 in10.0 miCalmClear
10:55 PM21.9 °F12.0 °F66 %30.20 in10.0 miVariable3.5 mphClear
11:55 PM23.0 °F10.9 °F60 %30.17 in10.0 miCalmClear
Hourly data recorded from KLIC, located miles away from Amy, Colorado







STORIES FROM OUR PARTNERS